Date,TemperatureHighF,TemperatureAvgF,TemperatureLowF,DewpointHighF,DewpointAvgF,DewpointLowF,HumidityHigh,HumidityAvg,HumidityLow,PressureMaxIn,PressureMinIn,WindSpeedMaxMPH,WindSpeedAvgMPH,GustSpeedMaxMPH,PrecipitationSumIn
2013-3-1,51.1,48.2,44.4,49.1,47.7,43.9,98,98,98,30.26,30.22,7,2,7,0.92
2013-3-2,49.3,46.1,39.4,48.8,45.6,38.9,98,98,98,30.23,30.01,7,2,7,0.62
2013-3-3,51.4,41.3,33.8,49.4,40.2,33.3,98,96,82,30.33,30.14,9,2,9,0.00
2013-3-4,51.1,39.6,30.2,50.0,39.0,29.7,98,98,89,30.33,29.99,5,1,5,0.00
2013-3-5,48.6,40.6,34.0,46.5,39.8,33.5,98,97,87,30.00,29.79,8,0,8,0.07
2013-3-6,47.3,42.2,37.6,46.8,41.7,37.1,98,98,98,29.87,29.64,6,1,6,0.09
2013-3-7,46.9,41.2,35.1,46.4,40.7,34.6,98,98,98,30.13,29.87,6,1,6,0.21
2013-3-8,52.2,39.9,30.6,50.6,39.4,30.1,98,98,98,30.25,30.11,6,1,6,0.01
2013-3-9,55.6,43.7,34.0,54.4,43.2,33.5,98,98,98,30.50,30.25,6,1,6,0.00
2013-3-10,48.2,43.3,37.8,47.5,42.8,23.9,98,98,98,30.50,30.43,5,1,5,0.00
2013-3-11,52.2,44.4,38.5,51.3,43.9,38.0,98,98,98,30.45,30.14,6,1,6,0.20
2013-3-12,51.6,45.5,39.9,50.8,45.0,39.1,98,98,98,30.14,29.98,8,3,8,1.02
2013-3-13,50.7,48.9,47.8,50.2,48.4,47.3,98,98,98,30.16,30.01,8,2,8,1.14
2013-3-14,50.5,48.6,45.5,50.0,48.1,44.8,98,98,98,30.12,30.00,6,1,6,0.79
2013-3-15,54.3,48.3,45.0,52.8,47.8,44.5,98,98,98,30.20,30.11,7,1,7,0.15
2013-3-16,49.8,44.3,39.2,49.3,43.8,38.7,98,98,93,30.11,29.81,9,2,9,0.08
2013-3-17,51.4,42.6,38.5,44.3,37.8,30.2,98,85,54,30.13,29.90,14,3,14,0.00
2013-3-18,52.3,43.1,36.9,43.9,37.4,26.3,98,83,44,30.25,30.03,12,3,12,0.08
2013-3-19,50.2,40.8,33.8,44.5,37.3,33.0,98,89,54,30.25,29.57,9,2,9,0.33
2013-3-20,54.9,44.4,37.2,53.0,43.0,36.7,98,95,71,29.91,29.29,13,4,13,0.80
2013-3-21,51.3,40.7,31.5,44.9,35.8,25.4,98,85,40,30.17,29.91,8,2,8,0.15
2013-3-22,50.2,39.4,30.6,42.1,34.2,27.8,98,84,48,30.40,30.17,7,2,7,0.00
2013-3-23,52.2,40.9,32.9,40.1,34.3,28.7,98,80,51,30.42,30.33,7,1,7,0.00
2013-3-24,54.9,43.4,36.1,37.8,33.9,22.9,91,70,48,30.33,30.13,5,1,5,0.00
2013-3-25,58.1,46.5,39.2,41.5,35.1,28.8,93,66,40,30.16,29.98,6,1,6,0.00
2013-3-26,55.9,42.0,37.8,42.1,39.0,35.0,98,91,52,30.05,29.99,4,0,4,0.00
2013-3-27,60.6,48.5,37.9,51.1,43.8,37.4,98,86,52,30.01,29.96,6,1,6,0.00
2013-3-28,62.8,51.8,44.1,51.1,47.1,41.4,98,86,54,30.15,30.01,6,1,6,0.00
2013-3-29,60.4,50.2,43.3,57.9,49.1,8.8,98,96,81,30.28,30.15,5,1,5,0.00
2013-3-30,64.8,50.7,38.5,54.2,46.4,22.9,98,87,59,30.30,30.12,6,1,6,0.00
2013-3-31,67.6,52.6,38.8,58.8,47.6,38.3,98,85,48,30.12,29.92,6,1,6,0.00